Погода в Руденковке

Украина / Полтавская область     49°19′22″N   34°24′22″E
темп.,
°C
ветер,
м/с
пор.,
м/с
влажн.,
%
обл.,
%
осадки,
мм/ч
давл.,
гПа
погр.,
м
13 мая, чт
чт1300:00+7вюв379492 0.7 1012150
03:00+5ю35966 0.7 101288
06:00+6ююв2395100 0.0 101366
09:00+11ююв347424 0.0 1013667
12:00+15ю565686 0.0 10131279
15:00+18ю564639 0.0 10121571
18:00+18ю2455100 0.0 1012916
21:00+14вюв226386 0.0 101219
14 мая, пт
пт1400:00+12в4569100 0.0 101266
03:00+12в3584100 0.0 101188
06:00+12вюв3790100 0.0 1010154
09:00+18юв5775100 0.0 1009526
12:00+22ю6760100 0.0 10091226
15:00+23ю6846100 0.0 10081408
18:00+21ю5962100 0.0 1008498
21:00+16ю41277100 0.0 1009231
15 мая, сб
сб1500:00+14юз36854 0.0 1010105
03:00+12юз349338 0.0 101151
06:00+12ю359080 0.0 1011105
09:00+17ююз467071 0.0 1012463
12:00+22ююз58521 0.0 10121671
15:00+22ююз3655100 0.0 1012886
18:00+20ююз3468100 0.0 101290
21:00+18сз236458 0.0 101232
16 мая, вс
вс1600:00+15с1173100 0.1 101311
03:00+13ссв22830 0.1 101318
06:00+13св34870 0.0 101376
09:00+20всв3466100 0.0 1013424
12:00+24всв444752 0.0 10121562
15:00+25всв454299 0.0 10112098
18:00+24всв4760100 0.0 1009455
21:00+18всв4117997 0.2 1009191
17 мая, пн
пн1700:00+17св51086100 0.4 1007211
03:00+16всв4888100 0.4 1005140
06:00+15в3788100 0.0 1004144
09:00+21вюв696698 0.0 1003458
12:00+23юв6753100 0.0 1004989
15:00+23ю577094 4.3 10031112
18:00+21зюз467756 0.7 1004671
21:00+17ю3390100 2.3 100642